936  
ASUS43 KIWX 242110  
RWRIWX  
 
KIWX WEATHER ROUNDUP  
NATIONAL WEATHER SERVICE NORTHERN INDIANA  
400 PM EST WED FEB 24 2021  
 
NOTE: "FAIR" INDICATES FEW OR NO CLOUDS BELOW 12,000 FEET WITH NO  
SIGNIFICANT WEATHER AND/OR S TO VISIBILITY
.  
 
* THESE STATIONS ARE NOT UNDER NWS QUALITY CONTROL. THEY ALSO MAY NOT  
REPORT WEATHER SUCH AS PRECIPITATION OR FOG.
 
 
INZ001>027-242200-  
NORTHERN INDIANA  
 
CITY SKY/WX TMP DP RH WIND PRES REMARKS
 
GARY* MOSUNNY 41 32 70 NW12 29.94R  
VALPARAISO CLOUDY 41 31 67 N10G22 29.94R  
MICHIGAN CITY* CLOUDY 37 32 81 N9G18 29.96R  
LAPORTE* PTSUNNY 39 31 75 NW16 29.94R  
KNOX* PTSUNNY 39 32 75 N12 29.93R  
SOUTH BEND CLOUDY 39 31 72 NW13G24 29.93R  
ELKHART* CLOUDY 37 32 81 NW15 29.91R  
GOSHEN CLOUDY 39 30 70 NW16G24 29.90R  
MONTICELLO* PTSUNNY 39 32 76 W12G17 29.94R  
LOGANSPORT* PTSUNNY 36 32 87 W8 29.94R  
ROCHESTER* PTSUNNY 45 34 65 W8 29.92R  
PLYMOUTH* CLOUDY 41 30 65 NW12G21 29.92R  
WARSAW* CLOUDY 39 32 75 NW13G22 29.91R  
AUBURN* MOSUNNY 41 32 70 W15G23 29.86R  
FORT WAYNE PTSUNNY 42 32 67 W14G23 29.88R  
HUNTINGTON* MOSUNNY 44 32 63 W10G16 29.89R  
PERU/GRISSOM PTSUNNY 40 39 95 W13 29.91R  
 

 
INZ028>050-242200-  
CENTRAL INDIANA  
 
CITY SKY/WX TMP DP RH WIND PRES REMARKS
 
LAFAYETTE MOSUNNY 45 34 65 W16G24 29.96R  
KOKOMO* MOSUNNY 40 34 79 W14 29.92R  
MARION* MOSUNNY 38 33 80 W14 29.91R  
MUNCIE* MOSUNNY 49 35 58 W15G26 29.89R  
PORTLAND* FAIR 46 32 57 W15 29.87R  
INDIANAPOLIS PTSUNNY 52 33 48 W21G26 29.94R  
 

 
MIZ043>046-050>051-056>058-064>065-071>073-077>080-242200-  
SOUTHWEST LOWER MICHIGAN  
 
CITY SKY/WX TMP DP RH WIND PRES REMARKS
 
BATTLE CREEK CLOUDY 37 32 82 W16 29.85R  
BENTON HARBOR CLOUDY 38 32 79 NW12G21 29.92R  
COLDWATER* CLOUDY 38 32 78 W12G18 29.85R  
HILLSDALE* CLOUDY 40 32 74 W20G28 29.80R  
HOLLAND CLOUDY 37 29 72 NW16G32 29.89R  
GRAND RAPIDS CLOUDY 38 31 76 NW15G28 29.84R  
KALAMAZOO CLOUDY 37 31 78 NW16G28 29.87R  
STURGIS* CLOUDY 39 32 76 NW14 29.87R  
THREE RIVERS* CLOUDY 37 32 82 NW13G21 29.89R  
 

 
OHZ001>008-015>018-024>025-242200-  
NORTHWEST OHIO  
 
CITY SKY/WX TMP DP RH WIND PRES REMARKS
 
WAUSEON* FAIR 43 37 81 W15G22 29.80R  
DEFIANCE SUNNY 46 32 58 W12G23 29.83R  
FINDLAY MOSUNNY 47 37 68 W20G28 29.80R  
OTTAWA* FAIR 45 34 65 W17G24 29.85R  
TOLEDO EXPRESS SUNNY 47 33 58 W17 29.79R  
VAN WERT* FAIR 43 32 65 W14 29.86R  
LIMA SUNNY 47 35 63 W17G30 29.84R  
 

 
AND FOR LAKE MICHIGAN COASTAL AND OPEN LAKE BUOY OBSERVATIONS  
 
STATION/POSITION TEMP WIND PRES VSBY WAVE
 
AIR SEA DIR/SP/G HT/PER  
(F) (DEG/KT/KT) (MB) (MI) (FT/S)  
CALUMET HARBOR 290/ 9/ 15 1012.9  
MICHIGAN CITY 38 300/ 14/ 14 N/A  
BURNS HARBOR 36 320/ 4/ 7 1014.6R  
SAINT JOSEPH 35 320/ 9/ 13 1014.6  
 

 

 
 
 
CLICK HERE TO GO TO PREVIOUS BULLETINS.

The Nexlab IN Page
The Nexlab OH Page
The Nexlab MI Page Main Text Page